Retour au catalogue

EDISON-1

ActifScienceSSO
NORAD 62610·PAYLOAD·🇩🇰 Denmark

Lancé Jan 14, 2025 depuis Vandenberg Space Force Base

Loading…

Prochains Passages (prochaines 24 heures)

TLE

FraisSource: Space-Track

Époque: Sep 13, 2026, 17:22 UTC

1 62610U 25009B   26256.72384996  .00009359  00000-0  29122-3 0  9995
2 62610  97.3956 339.2094 0004896   9.7559 350.3778 15.33513432 92518

Suivez EDISON-1 en temps réel avec AllMySat

Download on the App Store